• In Deutschland
  • Länderverzeichnis
  • Für 7 Tage
  • Wassertemperatur
  • Satellitenkarten
  • Wetterkarte
  • Widgets
  • user-avatar
    Anmelden

    Stündliche Wetter Nauchnyi

    Heute, 24 September, Montag

    Zeit Temperatur Niederschläge Wind Luftdruck Luftfeuchtigkeit
    00:00 +12°C° 0 mm 3 m/S 720 mmHg 89%
    01:00 +12°C° 0 mm 3 m/S 719 mmHg 90%
    02:00 +11°C° 0 mm 3 m/S 719 mmHg 91%
    03:00 +11°C° 0 mm 3 m/S 719 mmHg 91%
    04:00 +11°C° 0 mm 3 m/S 719 mmHg 92%
    05:00 +12°C° 0 mm 3 m/S 718 mmHg 92%
    06:00 +13°C° 0 mm 3 m/S 718 mmHg 87%
    07:00 +14°C° 0 mm 4 m/S 718 mmHg 82%
    08:00 +17°C° 0 mm 4 m/S 718 mmHg 76%
    09:00 +19°C° 0 mm 4 m/S 718 mmHg 70%
    10:00 +20°C° 0 mm 4 m/S 718 mmHg 63%
    11:00 +22°C° 0 mm 4 m/S 718 mmHg 56%
    12:00 +22°C° 0 mm 4 m/S 717 mmHg 57%
    13:00 +23°C° 0 mm 4 m/S 717 mmHg 57%
    14:00 +23°C° 0 mm 5 m/S 717 mmHg 58%
    15:00 +22°C° 0 mm 5 m/S 716 mmHg 64%
    16:00 +21°C° 0 mm 4 m/S 715 mmHg 69%
    17:00 +20°C° 0 mm 4 m/S 715 mmHg 75%
    18:00 +19°C° 0 mm 4 m/S 715 mmHg 78%
    19:00 +19°C° 0 mm 4 m/S 714 mmHg 81%
    20:00 +18°C° 0 mm 4 m/S 714 mmHg 84%
    21:00 +17°C° 0 mm 4 m/S 715 mmHg 84%
    22:00 +17°C° 0 mm 4 m/S 715 mmHg 83%
    23:00 +17°C° 0 mm 4 m/S 715 mmHg 83%

    Morgen, 25 September, Dienstag

    Zeit Temperatur Niederschläge Wind Luftdruck Luftfeuchtigkeit
    00:00 +14°C° 0.1 mm 5 m/S 715 mmHg 82%
    01:00 +13°C° 0.1 mm 6 m/S 716 mmHg 82%
    02:00 +11°C° 0.1 mm 7 m/S 716 mmHg 82%
    03:00 +10°C° 0.6 mm 7 m/S 716 mmHg 84%
    04:00 +9°C° 0.6 mm 7 m/S 716 mmHg 86%
    05:00 +8°C° 0.6 mm 7 m/S 717 mmHg 87%
    06:00 +8°C° 0.6 mm 6 m/S 717 mmHg 85%
    07:00 +8°C° 0.6 mm 6 m/S 718 mmHg 83%
    08:00 +8°C° 0.6 mm 6 m/S 719 mmHg 81%
    09:00 +9°C° 0.2 mm 6 m/S 719 mmHg 76%
    10:00 +9°C° 0.2 mm 6 m/S 720 mmHg 72%
    11:00 +10°C° 0.2 mm 6 m/S 721 mmHg 67%
    12:00 +11°C° 0 mm 7 m/S 721 mmHg 61%
    13:00 +11°C° 0 mm 7 m/S 721 mmHg 55%
    14:00 +12°C° 0 mm 7 m/S 721 mmHg 50%
    15:00 +11°C° 0 mm 7 m/S 721 mmHg 53%
    16:00 +11°C° 0 mm 7 m/S 721 mmHg 56%
    17:00 +10°C° 0 mm 7 m/S 721 mmHg 59%
    18:00 +9°C° 0 mm 6 m/S 722 mmHg 62%
    19:00 +8°C° 0 mm 6 m/S 723 mmHg 64%
    20:00 +7°C° 0 mm 5 m/S 723 mmHg 67%
    21:00 +7°C° 0 mm 5 m/S 723 mmHg 68%
    22:00 +6°C° 0 mm 5 m/S 724 mmHg 70%
    23:00 +6°C° 0 mm 5 m/S 724 mmHg 71%

    übermorgen, 26 September, Mittwoch

    Zeit Temperatur Niederschläge Wind Luftdruck Luftfeuchtigkeit
    00:00 +5°C° 0 mm 5 m/S 724 mmHg 72%
    01:00 +5°C° 0 mm 5 m/S 724 mmHg 73%
    02:00 +3°C° 0 mm 5 m/S 724 mmHg 74%
    03:00 +3°C° 0 mm 5 m/S 724 mmHg 75%
    04:00 +2°C° 0 mm 5 m/S 725 mmHg 75%
    05:00 +3°C° 0 mm 4 m/S 725 mmHg 76%
    06:00 +3°C° 0 mm 5 m/S 725 mmHg 70%
    07:00 +5°C° 0 mm 5 m/S 725 mmHg 64%
    08:00 +7°C° 0 mm 5 m/S 726 mmHg 58%
    09:00 +8°C° 0 mm 5 m/S 726 mmHg 53%
    10:00 +9°C° 0 mm 5 m/S 726 mmHg 48%
    11:00 +10°C° 0 mm 5 m/S 726 mmHg 43%
    12:00 +10°C° 0 mm 5 m/S 726 mmHg 42%
    13:00 +12°C° 0 mm 5 m/S 726 mmHg 41%
    14:00 +12°C° 0 mm 5 m/S 726 mmHg 39%
    15:00 +10°C° 0 mm 5 m/S 726 mmHg 42%
    16:00 +9°C° 0 mm 5 m/S 726 mmHg 45%
    17:00 +8°C° 0 mm 5 m/S 726 mmHg 48%
    18:00 +7°C° 0 mm 5 m/S 726 mmHg 51%
    19:00 +6°C° 0 mm 4 m/S 726 mmHg 54%
    20:00 +5°C° 0 mm 4 m/S 727 mmHg 57%
    21:00 +5°C° 0 mm 4 m/S 727 mmHg 58%
    22:00 +5°C° 0 mm 4 m/S 726 mmHg 60%
    23:00 +4°C° 0 mm 4 m/S 726 mmHg 61%

    27 September, Donnerstag

    Zeit Temperatur Niederschläge Wind Luftdruck Luftfeuchtigkeit
    00:00 +4°C° 0 mm 4 m/S 726 mmHg 63%
    01:00 +4°C° 0 mm 4 m/S 726 mmHg 64%
    02:00 +4°C° 0 mm 4 m/S 726 mmHg 66%
    03:00 +3°C° 0 mm 4 m/S 726 mmHg 70%
    04:00 +3°C° 0 mm 4 m/S 726 mmHg 73%
    05:00 +3°C° 0 mm 4 m/S 726 mmHg 77%
    06:00 +4°C° 0 mm 4 m/S 726 mmHg 73%
    07:00 +6°C° 0 mm 4 m/S 726 mmHg 68%
    08:00 +7°C° 0 mm 4 m/S 727 mmHg 64%
    09:00 +10°C° 0 mm 3 m/S 727 mmHg 57%
    10:00 +11°C° 0 mm 3 m/S 727 mmHg 51%
    11:00 +13°C° 0 mm 2 m/S 727 mmHg 44%
    12:00 +14°C° 0 mm 2 m/S 726 mmHg 42%
    13:00 +14°C° 0 mm 2 m/S 726 mmHg 40%
    14:00 +15°C° 0 mm 2 m/S 726 mmHg 38%
    15:00 +14°C° 0 mm 2 m/S 725 mmHg 41%
    16:00 +13°C° 0 mm 2 m/S 725 mmHg 44%
    17:00 +12°C° 0 mm 2 m/S 725 mmHg 47%
    18:00 +10°C° 0 mm 2 m/S 725 mmHg 50%
    19:00 +9°C° 0 mm 2 m/S 725 mmHg 53%
    20:00 +7°C° 0 mm 2 m/S 725 mmHg 56%
    21:00 +7°C° 0 mm 2 m/S 724 mmHg 58%
    22:00 +7°C° 0 mm 2 m/S 724 mmHg 61%
    23:00 +7°C° 0 mm 2 m/S 724 mmHg 63%

    28 September, Freitag

    Zeit Temperatur Niederschläge Wind Luftdruck Luftfeuchtigkeit
    00:00 +7°C° 0 mm 2 m/S 724 mmHg 64%
    01:00 +7°C° 0 mm 2 m/S 723 mmHg 65%
    02:00 +7°C° 0 mm 2 m/S 723 mmHg 66%
    03:00 +6°C° 0 mm 2 m/S 723 mmHg 65%
    04:00 +6°C° 0 mm 2 m/S 722 mmHg 64%
    05:00 +6°C° 0 mm 2 m/S 722 mmHg 62%
    06:00 +8°C° 0 mm 2 m/S 722 mmHg 56%
    07:00 +10°C° 0 mm 2 m/S 722 mmHg 50%
    08:00 +12°C° 0 mm 2 m/S 722 mmHg 43%
    09:00 +14°C° 0 mm 2 m/S 722 mmHg 38%
    10:00 +16°C° 0 mm 2 m/S 722 mmHg 34%
    11:00 +17°C° 0 mm 2 m/S 722 mmHg 29%
    12:00 +18°C° 0 mm 2 m/S 722 mmHg 28%
    13:00 +18°C° 0 mm 2 m/S 722 mmHg 28%
    14:00 +19°C° 0 mm 2 m/S 721 mmHg 27%
    15:00 +18°C° 0 mm 2 m/S 721 mmHg 32%
    16:00 +16°C° 0 mm 2 m/S 721 mmHg 37%
    17:00 +15°C° 0 mm 2 m/S 720 mmHg 42%
    18:00 +14°C° 0 mm 2 m/S 720 mmHg 45%
    19:00 +13°C° 0 mm 2 m/S 720 mmHg 49%
    20:00 +12°C° 0 mm 2 m/S 720 mmHg 52%
    21:00 +10°C° 0 mm 2 m/S 720 mmHg 53%
    22:00 +10°C° 0 mm 2 m/S 720 mmHg 53%
    23:00 +10°C° 0 mm 2 m/S 720 mmHg 54%

    29 September, Samstag

    Zeit Temperatur Niederschläge Wind Luftdruck Luftfeuchtigkeit
    00:00 +10°C° 0 mm 2 m/S 719 mmHg 54%
    01:00 +10°C° 0 mm 2 m/S 719 mmHg 53%
    02:00 +10°C° 0 mm 2 m/S 719 mmHg 52%
    03:00 +10°C° 0 mm 3 m/S 719 mmHg 53%
    04:00 +9°C° 0 mm 3 m/S 719 mmHg 53%
    05:00 +9°C° 0 mm 3 m/S 719 mmHg 53%
    06:00 +11°C° 0 mm 3 m/S 719 mmHg 50%
    07:00 +12°C° 0 mm 3 m/S 719 mmHg 48%
    08:00 +14°C° 0 mm 3 m/S 719 mmHg 45%
    09:00 +16°C° 0 mm 2 m/S 719 mmHg 42%
    10:00 +17°C° 0 mm 2 m/S 719 mmHg 38%
    11:00 +19°C° 0 mm 2 m/S 719 mmHg 35%
    12:00 +19°C° 0 mm 2 m/S 718 mmHg 34%
    13:00 +19°C° 0 mm 2 m/S 718 mmHg 33%
    14:00 +20°C° 0 mm 2 m/S 718 mmHg 32%
    15:00 +19°C° 0 mm 2 m/S 718 mmHg 37%
    16:00 +18°C° 0 mm 2 m/S 718 mmHg 42%
    17:00 +17°C° 0 mm 2 m/S 718 mmHg 47%
    18:00 +16°C° 0 mm 2 m/S 718 mmHg 51%
    19:00 +15°C° 0 mm 2 m/S 718 mmHg 55%
    20:00 +14°C° 0 mm 2 m/S 718 mmHg 59%
    21:00 +14°C° 0 mm 2 m/S 718 mmHg 58%
    22:00 +14°C° 0 mm 2 m/S 718 mmHg 57%
    23:00 +14°C° 0 mm 2 m/S 718 mmHg 56%
    Mehr zeigen

    3.3.7123123